Location: Bednik
(45.3500°N, 16.3833°E)
Time: 16:38:26
(UTC+00:00)

Cosmos 1633 Rocket - Pass Details

Date: 08 August 2020
Orbit: 606 x 625 km, 82.5° (Epoch: 18 September)

Event Time Altitude Azimuth Distance (km) Brightness Sun altitude
Exits shadow 19:18:03 13° 149° (SSE) 1,810 4.9 -10.9°
Maximum altitude 19:21:27 32° 90° (E) 1,082 3.9 -11.4°
Drops below altitude 10° 19:25:22 10° 28° (NNE) 2,004 5.8 -11.9°
Sets 19:27:47 0° 18° (NNE) 2,914 6.8 -12.3°
